Home   Weather   Hilo   Past weeks

Flag for USA Past Weather in Hilo, Hawaii, USA — Yesterday and Last 2 Weeks

Now
74 °F

Broken clouds.


Feels Like: 77 °F
Forecast: 63 / 75 °F
Wind: 10 mph from East

Location: Hilo International Airport

Current Time: Feb 24, 2017 at 11:54:54 am

Latest Report: Feb 24, 2017 at 10:53 am


Visibility: 10 mi

Pressure: 30.06 "Hg

Humidity: 53%

Dew Point: 56 °F

Location of HiloLocation

Past Weather in Hilo — Graph

°F

Hilo Temperature Yesterday

Maximum temperature yesterday: 76 °F (at 12:53 pm)
Minimum temperature yesterday: 66 °F (at 2:53 am)
Average temperature yesterday: 70 °F

High & Low Weather Summary for the Past Weeks

 TemperatureHumidityPressure
High82 °F (Feb 12, 9:53 am)100% (Feb 17, 2:33 am)30.28 "Hg (Feb 17, 2:33 am)
Low62 °F (Feb 10, 6:53 am)45% (Feb 22, 12:53 pm)29.87 "Hg (Feb 11, 3:53 pm)
Average72 °F76%30.07 "Hg
* Reported Feb 9 9:27 am — Feb 24 9:53 am, Hilo, Weather by CustomWeather, © 2017

Note: Actual official high and low records may vary slightly from our data, if they occured in-between our weather recording intervals... More about our weather records

Advertising

Hilo Weather History for the Previous 24 Hours

Scroll right to see more
 ConditionsComfort  
Time TempWeatherWind HumidityBarometerVisibility
9:53 am
Fri, Feb 24
74 °FPartly sunny.7 mph56%30.08 "Hg10 mi
8:53 am70 °FOvercast.3 mph66%30.08 "Hg10 mi
7:53 am67 °FLight rain. Broken clouds.5 mph71%30.07 "Hg10 mi
6:53 am65 °FPartly sunny.5 mph73%30.06 "Hg10 mi
5:53 am66 °FOvercast.6 mph73%30.05 "Hg10 mi
4:53 am67 °FMostly cloudy.6 mph76%30.03 "Hg10 mi
3:53 am70 °FPassing clouds.8 mph68%30.03 "Hg10 mi
2:53 am70 °FMostly cloudy.8 mph71%30.04 "Hg10 mi
1:53 am69 °FPartly cloudy.6 mph70%30.05 "Hg10 mi
12:53 am68 °FMostly cloudy.7 mph70%30.07 "Hg10 mi
11:53 pm
Thu, Feb 23
67 °FOvercast.No wind76%30.09 "Hg10 mi
10:53 pm69 °FOvercast.6 mph70%30.10 "Hg10 mi
9:53 pm68 °FOvercast.No wind73%30.11 "Hg10 mi
8:53 pm68 °FLight rain. Overcast.7 mph76%30.11 "Hg10 mi
7:53 pm72 °FPartly cloudy.9 mph66%30.11 "Hg10 mi
6:53 pm72 °FOvercast.8 mph66%30.10 "Hg10 mi
5:53 pm73 °FMostly cloudy.8 mph64%30.09 "Hg10 mi
4:53 pm72 °FLight rain. Mostly cloudy.9 mph73%30.09 "Hg10 mi
3:53 pm74 °FPartly sunny.10 mph62%30.08 "Hg10 mi
2:53 pm75 °FBroken clouds.10 mph60%30.08 "Hg10 mi
1:53 pm75 °FBroken clouds.12 mph62%30.09 "Hg10 mi
12:53 pm76 °FBroken clouds.15 mph62%30.12 "Hg10 mi
11:53 am75 °FPartly sunny.9 mph62%30.15 "Hg10 mi
Weather by CustomWeather, © 2017

See weather overviewHow to use our weather pages